This demonstration page uses our WeatherBlox Daily Observations layout. Learn more.

Left ArrowRight Arrow

39.01783, -85.05884

Hourly Observations for June 27, 2015

Temp ( °F °C ) Dew Point ( °F °C ) Humidity (%) Winds ( mph kmh ) Pressure ( in mb ) Visibility ( mi km ) Precip ( " mm )
12:52 am 00:52 Cloudy with Light Rain 68 20 65 18.3 90 90 S 8 13 29.80 1009 9 14 N/A
1:52 am 01:52 Cloudy 68 20 66 18.9 93 93 SSW 7 11 29.78 1008 10 16 0.04 1.02
2:52 am 02:52 Cloudy 68 20 66 18.9 93 93 SSW 6 9 29.75 1008 9 14 N/A
3:03 am 03:03 Cloudy 68 20 66 19 94 94 S 6 9 29.74 1007 10 16 N/A
3:52 am 03:52 Cloudy 68 20 67 19.4 96 96 SSW 6 9 29.73 1007 9 14 N/A
4:52 am 04:52 Mostly Cloudy 69 20.6 67 19.4 93 93 SSW 7 11 29.71 1006 8 13 N/A
5:52 am 05:52 Cloudy 69 20.6 67 19.4 93 93 SW 8 13 29.72 1006 8 13 N/A
6:52 am 06:52 Cloudy with Mist and Fog 69 20.6 67 19.4 93 93 SW 9 15 29.72 1007 6 10 0.01 0.25
7:52 am 07:52 Cloudy with Light Rain 69 20.6 66 18.9 90 90 W 15 24 29.72 1006 3 5 0.01 0.25
8:18 am 08:18 Cloudy with Mist and Fog 68 20 64 18 88 88 W 10 17 29.71 1006 3 5 N/A
8:52 am 08:52 Cloudy 65 18.3 62 16.7 90 90 W 18 30 29.73 1007 10 16 N/A
9:52 am 09:52 Cloudy 66 18.9 61 16.1 84 84 W 15 24 29.75 1008 10 16 N/A
10:52 am 10:52 Cloudy 63 17.2 58 14.4 84 84 WNW 20 31 29.78 1008 10 16 N/A
11:52 am 11:52 Mostly Cloudy 66 18.9 59 15 78 78 W 14 22 29.78 1009 10 16 N/A
12:52 pm 12:52 Cloudy 66 18.9 58 14.4 75 75 W 15 24 29.80 1009 10 16 N/A
1:52 pm 13:52 Cloudy 67 19.4 58 14.4 73 73 WNW 15 24 29.79 1009 10 16 N/A
2:52 pm 14:52 Cloudy 66 18.9 57 13.9 73 73 WNW 17 28 29.81 1009 10 16 N/A
3:52 pm 15:52 Cloudy 67 19.4 57 13.9 71 71 NW 18 30 29.81 1010 10 16 N/A
4:52 pm 16:52 Cloudy 67 19.4 57 13.9 71 71 NW 17 28 29.81 1010 10 16 N/A
5:52 pm 17:52 Cloudy 66 18.9 56 13.3 70 70 NW 14 22 29.83 1010 10 16 N/A
6:15 pm 18:15 Cloudy 66 19 55 13 68 68 WNW 12 19 29.83 1010 10 16 N/A
6:52 pm 18:52 Cloudy 66 18.9 56 13.3 70 70 NW 15 24 29.84 1011 10 16 N/A
7:52 pm 19:52 Cloudy 66 18.9 54 12.2 65 65 NW 17 28 29.86 1011 10 16 N/A
8:52 pm 20:52 Cloudy 65 18.3 54 12.2 68 68 WNW 9 15 29.87 1012 10 16 N/A
9:52 pm 21:52 Mostly Cloudy 64 17.8 54 12.2 70 70 WNW 16 26 29.87 1012 10 16 N/A
10:52 pm 22:52 Partly Cloudy 61 16.1 54 12.2 78 78 W 10 17 29.88 1012 10 16 N/A
11:52 pm 23:52 Partly Cloudy 60 15.6 53 11.7 78 78 W 7 11 29.89 1012 10 16 N/A

Powered by AerisWeather